INMARSAT 5-F3

Last updated on Sat Nov 01 2025 00:02:48 GMT+0000 (Coordinated Universal Time)

1 40882U 15042A 25304.37753080 .00000061 00000+0 00000+0 0 9996 2 40882 0.0187 189.3355 0000179 287.7217 238.4030 1.00271319 37278
UTC large
Height (km)
Speed (km/s)
/
Latitude / Longitude
Inclination (degrees)
Orbital Period (minutes)
Azimuth
Elevation
Range (km)
Doppler Factor

Next 0 passes for location: London (51.5072 / 0.1276)

Sorry there are no passes over London.